Weather History for Eau Claire, WI

Change the Weather History Date:

Tuesday, October 8, 2013

  Actual Average Record
Temperature  
Mean Temperature 57 °F 50 °F  
Max Temperature 75 °F 62 °F 84 °F (2011)
Min Temperature 39 °F 39 °F 23 °F (1987)
Degree Days  
Heating Degree Days 8 15  
Month to date heating degree days 71 108  
Since 1 July heating degree days 238 341  
Cooling Degree Days 0 0  
Month to date cooling degree days 0 0  
Year to date cooling degree days 653 575  
Growing Degree Days 7 (Base 50)    
Moisture  
Dew Point 42 °F    
Average Humidity 67    
Maximum Humidity 100    
Minimum Humidity 33    
Precipitation  
Precipitation 0.00 in 0.08 in 2.79 in (1949)
Month to date precipitation 2.22 0.76  
Year to date precipitation 31.63 26.56  
Snow  
Snow 0.00 in 0.00 in T in (1915)
Month to date snowfall 0.0 0.0  
Since 1 July snowfall 0.0 0.0  
Since 1 September snowfall 0.0 0.0  
Snow Depth 0.00 in    
Sea Level Pressure  
Sea Level Pressure 29.99 in    
Wind  
Wind Speed 9 mph (South)    
Max Wind Speed 22 mph    
Max Gust Speed 29 mph    
Visibility 10 miles    
Events      
T = Trace of Precipitation, MM = Missing Value Source: NWS Daily Summary

Daily Weather History Graph

Daily Weather History Graph

Search for Another Location

Airport:

Trip Planner

Search our weather history database for the weather conditions in past years. The results will help you decide how hot, cold, wet, or windy it might be!

Date:

Astronomy

Oct. 08, 2013 Rise Set
Actual Time 7:12 AM CDT 6:33 PM CDT
Civil Twilight 6:43 AM CDT 7:02 PM CDT
Nautical Twilight 6:09 AM CDT 7:36 PM CDT
Astronomical Twilight 5:35 AM CDT 8:10 PM CDT
Moon 11:17 AM CDT (10/8) 9:00 PM CDT (10/8)
Length of Visible Light 12h 18m
Length of Day
11h 20m
Waxing Crescent, 16% of the Moon is Illuminated
Oct 8
Waxing Crescent
Oct 11
First Quarter
Oct 18
Full
Oct 26
Last Quarter
Nov 3
New

Hourly Weather History & Observations

Time (CDT) Temp. Windchill Dew Point Humidity Pressure Visibility Wind Dir Wind Speed Gust Speed Precip Events Conditions
12:56 AM 41.0 °F - 39.0 °F 93% 30.03 in 10.0 mi Calm Calm - N/A   Clear
1:56 AM 39.9 °F - 39.0 °F 97% 30.04 in 10.0 mi Calm Calm - N/A   Clear
2:56 AM 39.9 °F - 39.0 °F 97% 30.03 in 10.0 mi Calm Calm - N/A   Clear
3:56 AM 39.9 °F - 39.0 °F 97% 30.03 in 10.0 mi Calm Calm - N/A   Clear
4:56 AM 39.0 °F - 37.9 °F 96% 30.03 in 10.0 mi Calm Calm - N/A   Clear
5:56 AM 41.0 °F - 39.0 °F 93% 30.03 in 10.0 mi Calm Calm - N/A   Clear
6:56 AM 39.9 °F 37.8 °F 37.9 °F 93% 30.04 in 10.0 mi SSE 3.5 mph - N/A   Clear
7:56 AM 46.0 °F - 42.1 °F 86% 30.03 in 10.0 mi Calm Calm - N/A   Clear
8:56 AM 55.0 °F - 45.0 °F 69% 30.02 in 10.0 mi South 12.7 mph - N/A   Clear
9:56 AM 59.0 °F - 44.1 °F 58% 30.01 in 10.0 mi South 13.8 mph - N/A   Clear
10:56 AM 64.0 °F - 45.0 °F 50% 30.00 in 10.0 mi South 12.7 mph - N/A   Clear
11:56 AM 68.0 °F - 46.0 °F 45% 29.99 in 10.0 mi South 11.5 mph - N/A   Clear
12:56 PM 71.1 °F - 44.1 °F 38% 29.97 in 10.0 mi South 13.8 mph 23.0 mph N/A   Clear
1:56 PM 73.0 °F - 44.1 °F 35% 29.96 in 10.0 mi South 17.3 mph 25.3 mph N/A   Clear
2:56 PM 73.9 °F - 45.0 °F 35% 29.95 in 10.0 mi South 15.0 mph - N/A   Clear
3:56 PM 75.0 °F - 44.1 °F 33% 29.93 in 10.0 mi South 12.7 mph - N/A   Clear
4:56 PM 73.9 °F - 42.1 °F 32% 29.93 in 10.0 mi South 16.1 mph 21.9 mph N/A   Clear
5:56 PM 71.1 °F - 42.1 °F 35% 29.94 in 10.0 mi South 13.8 mph - N/A   Clear
6:56 PM 66.9 °F - 43.0 °F 42% 29.94 in 10.0 mi SSE 8.1 mph - N/A   Clear
7:56 PM 64.9 °F - 44.1 °F 47% 29.95 in 10.0 mi SSE 10.4 mph - N/A   Clear
8:56 PM 64.9 °F - 44.1 °F 47% 29.96 in 10.0 mi South 10.4 mph - N/A   Clear
9:56 PM 64.9 °F - 44.1 °F 47% 29.97 in 10.0 mi South 9.2 mph - N/A   Clear
10:56 PM 64.0 °F - 44.1 °F 48% 29.98 in 10.0 mi South 10.4 mph - N/A   Clear
11:56 PM 64.0 °F - 44.1 °F 48% 29.98 in 10.0 mi South 6.9 mph - N/A   Clear